Regional Weather Roundup
Issued by NWS

Home | Current Version | Previous Version | Graphics & Text | Print | Product List | Glossary On
Versions: 1 2 3 4 5 6 7 8 9 10 11 12 13 14 15 16 17 18 19 20 21 22 23 24 25 26 27 28 29 30 31 32 33 34 35 36 37 38 39 40 41 42 43 44 45 46 47 48 49 50
000
ASUS43 KLMK 031610
RWRKY
KENTUCKY REGIONAL WEATHER ROUNDUP
NATIONAL WEATHER SERVICE LOUISVILLE KY
1200 PM EDT SUN MAY 03 2015

NOTE "FAIR" INDICATES FEW OR NO CLOUDS BELOW 12,000 FEET
WITH NO SIGNIFICANT WEATHER AND/OR OBSTRUCTIONS TO VISIBILITY.

KYZ001>023-026-027-061>063-070>075-031700-
WESTERN AND SOUTH CENTRAL KENTUCKY

CITY           SKY/WX    TMP DP  RH WIND       PRES   REMARKS
PADUCAH        MOSUNNY   75  46  35 SW12G17   30.10S
HENDERSON      SUNNY     75  48  38 S13       30.09F
OWENSBORO      MOSUNNY   72  54  53 S6        30.13R
HOPKINSVILLE   SUNNY     75  51  41 S8        30.13S
BOWLING GREEN  MOSUNNY   75  52  44 S6        30.15R
GLASGOW        MOSUNNY   73  49  41 SW6       30.15S
$$

KYZ024-025-028>034-038-045-046-053-031700-
NORTH CENTRAL KENTUCKY

CITY           SKY/WX    TMP DP  RH WIND       PRES   REMARKS
LOUISVILLE/SDF PTSUNNY   74  47  38 S8        30.13S
LOUISVILLE/LOU MOSUNNY   74  47  38 S9        30.14R
FORT KNOX      PTSUNNY   74  48  40 S12G17    30.12R
$$

KYZ035>037-039>044-047>052-055>060-089>105-031700-
NORTHEAST KENTUCKY

CITY           SKY/WX    TMP DP  RH WIND       PRES   REMARKS
LEXINGTON      PTSUNNY   73  48  41 S10G17    30.16S
COVINGTON      MOSUNNY   72  50  45 S7        30.14R
FRANKFORT      PTSUNNY   71  49  45 S6        30.14S
$$

KYZ054-064>069-076>088-106>120-031700-
SOUTHEAST KENTUCKY

CITY           SKY/WX    TMP DP  RH WIND       PRES   REMARKS
JACKSON        SUNNY     71  42  35 VRB3      30.18S
LONDON         MOSUNNY   72  43  35 VRB5      30.17F
SOMERSET       MOSUNNY   70  46  43 SW5       30.18S
MIDDLESBORO    MOSUNNY   72  45  37 SW6       30.19S
MONTICELLO     MOSUNNY   75  46  35 CALM      30.19S
$$



USA.gov is the U.S. government's official web portal to all federal, state and local government web resources and services.